Weather History for Port Isabel, TX

Change the Weather History Date:

Saturday, February 23, 2013

  Actual Average Record
Temperature  
Mean Temperature 65 °F -  
Max Temperature 69 °F - - ()
Min Temperature 61 °F - - ()
Growing Degree Days 15 (Base 50)    
Moisture  
Dew Point 57 °F    
Average Humidity 75    
Maximum Humidity 90    
Minimum Humidity 54    
Precipitation  
Precipitation 0.00 in - - ()
Sea Level Pressure  
Sea Level Pressure 29.92 in    
Wind  
Wind Speed 13 mph (NNE)    
Max Wind Speed 20 mph    
Max Gust Speed 25 mph    
Visibility 8 miles    
Events Rain    
T = Trace of Precipitation, MM = Missing Value Source: NWS Daily Summary

Daily Weather History Graph

Daily Weather History Graph

Search for Another Location

Airport:

Trip Planner

Search our weather history database for the weather conditions in past years. The results will help you decide how hot, cold, wet, or windy it might be!

Date:

Astronomy

Feb. 23, 2013 Rise Set
Actual Time 6:58 AM CST 6:27 PM CST
Civil Twilight 6:34 AM CST 6:50 PM CST
Nautical Twilight 6:07 AM CST 7:17 PM CST
Astronomical Twilight 5:41 AM CST 7:44 PM CST
Moon 4:44 PM CST (2/23) 5:13 AM CST (2/23)
Length of Visible Light 12h 16m
Length of Day
11h 29m
Waxing Gibbous, 95% of the Moon is Illuminated
Feb 23
Waxing Gibbous
Feb 25
Full
Mar 4
Last Quarter
Mar 11
New
Mar 19
First Quarter

Hourly Weather History & Observations

Time (CST) Temp. Dew Point Humidity Pressure Visibility Wind Dir Wind Speed Gust Speed Precip Events Conditions
12:20 AM 69.8 °F 62.6 °F 78% 29.87 in 7.0 mi North 11.5 mph - N/A   Overcast
12:53 AM 68.0 °F 63.0 °F 84% 29.87 in 8.0 mi North 13.8 mph - N/A   Overcast
1:41 AM 68.0 °F 60.8 °F 78% 29.87 in 8.0 mi North 19.6 mph 24.2 mph N/A   Overcast
1:53 AM 68.0 °F 61.0 °F 78% 29.87 in 8.0 mi North 18.4 mph 24.2 mph N/A   Overcast
3:53 AM 63.0 °F 57.0 °F 81% 29.89 in 9.0 mi North 16.1 mph - 0.00 in Rain Light Rain
4:53 AM 63.0 °F 55.0 °F 75% 29.88 in 9.0 mi North 17.3 mph - 0.00 in   Overcast
5:53 AM 64.0 °F 55.9 °F 75% 29.90 in 9.0 mi North 15.0 mph 25.3 mph N/A   Overcast
6:53 AM 64.0 °F 55.9 °F 75% 29.90 in 9.0 mi NNE 15.0 mph - N/A   Overcast
7:12 AM 64.4 °F 57.2 °F 77% 29.90 in 9.0 mi North 16.1 mph - N/A   Overcast
7:53 AM 64.0 °F 57.0 °F 78% 29.93 in 7.0 mi NNE 15.0 mph 19.6 mph N/A   Overcast
8:37 AM 64.4 °F 57.2 °F 77% 29.94 in 7.0 mi North 16.1 mph - N/A   Mostly Cloudy
8:53 AM 64.9 °F 57.9 °F 78% 29.96 in 7.0 mi North 13.8 mph - N/A   Overcast
9:53 AM 64.9 °F 55.9 °F 73% 29.97 in 8.0 mi North 16.1 mph - N/A   Overcast
10:53 AM 64.9 °F 55.9 °F 73% 29.99 in 8.0 mi North 15.0 mph - N/A   Overcast
11:53 AM 64.9 °F 55.0 °F 70% 29.98 in 8.0 mi North 15.0 mph - N/A   Overcast
12:18 PM 64.4 °F 53.6 °F 68% 29.98 in 8.0 mi NNW 16.1 mph - N/A   Overcast
12:53 PM 64.9 °F 52.0 °F 63% 29.97 in 8.0 mi NNW 15.0 mph - N/A   Overcast
1:53 PM 66.0 °F 53.1 °F 63% 29.95 in 8.0 mi North 13.8 mph - N/A   Overcast
2:53 PM 66.9 °F 53.1 °F 61% 29.92 in 8.0 mi NNE 13.8 mph - N/A   Mostly Cloudy
3:03 PM 66.2 °F 53.6 °F 64% 29.91 in 8.0 mi NNE 15.0 mph - N/A   Partly Cloudy
3:53 PM 69.1 °F 55.0 °F 61% 29.90 in 7.0 mi NE 8.1 mph - N/A   Clear
4:53 PM 69.1 °F 52.0 °F 54% 29.88 in 8.0 mi NE 10.4 mph - N/A   Clear
5:53 PM 66.9 °F 54.0 °F 63% 29.88 in 8.0 mi NE 9.2 mph - N/A   Clear
6:53 PM 63.0 °F 55.0 °F 75% 29.89 in 9.0 mi ENE 4.6 mph - N/A   Clear
7:53 PM 61.0 °F 55.9 °F 83% 29.91 in 9.0 mi NE 5.8 mph - N/A   Clear
8:53 PM 62.1 °F 57.9 °F 86% 29.92 in 8.0 mi ENE 6.9 mph - N/A   Clear
9:53 PM 62.1 °F 59.0 °F 90% 29.94 in 8.0 mi ENE 4.6 mph - N/A   Partly Cloudy
10:53 PM 62.1 °F 57.9 °F 86% 29.92 in 7.0 mi ENE 5.8 mph - N/A   Partly Cloudy
11:08 PM 62.6 °F 59.0 °F 88% 29.92 in 7.0 mi NE 4.6 mph - N/A   Mostly Cloudy
11:49 PM 62.6 °F 59.0 °F 88% 29.91 in 8.0 mi Calm Calm - N/A   Overcast
11:53 PM 63.0 °F 59.0 °F 87% 29.91 in 7.0 mi ENE 3.5 mph - N/A   Overcast